Weather History for Claremore, OK

Change the Weather History Date:

Monday, September 10, 2012

  Actual Average (KTUL) Record (KTUL)
Temperature  
Mean Temperature 69 °F 75 °F  
Max Temperature 87 °F 86 °F 105 °F (1936)
Min Temperature 51 °F 65 °F 48 °F (1962)
Degree Days  
Heating Degree Days 0 0  
Month to date heating degree days 0  
Since 1 July heating degree days 0  
Cooling Degree Days 4 11  
Month to date cooling degree days 123  
Year to date cooling degree days 1824  
Growing Degree Days 19 (Base 50)    
Moisture  
Dew Point 50 °F    
Average Humidity 55    
Maximum Humidity 94    
Minimum Humidity 23    
Precipitation  
Precipitation 0.00 in 0.14 in 3.10 in (1999)
Month to date precipitation 1.38  
Year to date precipitation 28.86  
Sea Level Pressure  
Sea Level Pressure 30.11 in    
Wind  
Wind Speed 6 mph (ESE)    
Max Wind Speed 12 mph    
Max Gust Speed -    
Visibility 10 miles    
Events      
T = Trace of Precipitation, MM = Missing Value Source: NWS Daily Summary

Daily Weather History Graph

Daily Weather History Graph

Search for Another Location

Airport:

Trip Planner

Search our weather history database for the weather conditions in past years. The results will help you decide how hot, cold, wet, or windy it might be!

Date:

Astronomy

Sep. 10, 2012 Rise Set
Actual Time 7:00 AM CDT 7:35 PM CDT
Civil Twilight 6:34 AM CDT 8:01 PM CDT
Nautical Twilight 6:04 AM CDT 8:32 PM CDT
Astronomical Twilight 5:33 AM CDT 9:03 PM CDT
Moon 1:30 AM CDT (9/10) 3:59 PM CDT (9/10)
Length of Visible Light 13h 26m
Length of Day
12h 35m
Waning Crescent, 30% of the Moon is Illuminated
Sep 10
Waning Crescent
Sep 15
New
Sep 22
First Quarter
Sep 29
Full
Oct 8
Last Quarter

Hourly Weather History & Observations

Time (CDT) Temp. Dew Point Humidity Pressure Visibility Wind Dir Wind Speed Gust Speed Precip Events Conditions
12:15 AM 62.6 °F 51.8 °F 68% 30.14 in 10.0 mi ENE 6.9 mph - N/A   Clear
12:35 AM 60.8 °F 51.8 °F 72% 30.14 in 10.0 mi ENE 5.8 mph - N/A   Clear
12:55 AM 60.8 °F 51.8 °F 72% 30.14 in 10.0 mi ENE 5.8 mph - N/A   Clear
1:15 AM 59.0 °F 51.8 °F 77% 30.14 in 10.0 mi ENE 5.8 mph - N/A   Clear
1:35 AM 59.0 °F 51.8 °F 77% 30.14 in 10.0 mi ENE 4.6 mph - N/A   Clear
1:55 AM 57.2 °F 50.0 °F 77% 30.14 in 10.0 mi East 3.5 mph - N/A   Clear
2:15 AM 57.2 °F 50.0 °F 77% 30.14 in 10.0 mi ENE 4.6 mph - N/A   Clear
2:35 AM 55.4 °F 50.0 °F 82% 30.14 in 10.0 mi NE 4.6 mph - N/A   Clear
2:55 AM 55.4 °F 50.0 °F 82% 30.13 in 10.0 mi NE 4.6 mph - N/A   Clear
3:15 AM 55.4 °F 50.0 °F 82% 30.13 in 10.0 mi ENE 3.5 mph - N/A   Clear
3:35 AM 55.4 °F 50.0 °F 82% 30.13 in 10.0 mi NE 3.5 mph - N/A   Clear
3:55 AM 53.6 °F 50.0 °F 88% 30.13 in 10.0 mi Calm Calm - N/A   Clear
4:15 AM 53.6 °F 50.0 °F 88% 30.13 in 10.0 mi NE 4.6 mph - N/A   Clear
4:35 AM 53.6 °F 50.0 °F 88% 30.13 in 10.0 mi NE 5.8 mph - N/A   Clear
4:55 AM 53.6 °F 50.0 °F 88% 30.14 in 10.0 mi NE 4.6 mph - N/A   Clear
5:15 AM 53.6 °F 50.0 °F 88% 30.14 in 10.0 mi NE 5.8 mph - N/A   Clear
5:35 AM 53.6 °F 50.0 °F 88% 30.14 in 10.0 mi ENE 6.9 mph - N/A   Clear
5:55 AM 53.6 °F 50.0 °F 88% 30.15 in 10.0 mi ENE 5.8 mph - N/A   Clear
6:15 AM 53.6 °F 50.0 °F 88% 30.15 in 10.0 mi ENE 8.1 mph - N/A   Clear
6:35 AM 53.6 °F 50.0 °F 88% 30.16 in 10.0 mi ENE 5.8 mph - N/A   Clear
6:55 AM 51.8 °F 50.0 °F 94% 30.16 in 10.0 mi ENE 4.6 mph - N/A   Clear
7:15 AM 51.8 °F 50.0 °F 94% 30.16 in 10.0 mi ENE 5.8 mph - N/A   Clear
7:35 AM 53.6 °F 50.0 °F 88% 30.17 in 10.0 mi ENE 5.8 mph - N/A   Clear
7:55 AM 55.4 °F 51.8 °F 88% 30.17 in 10.0 mi ENE 4.6 mph - N/A   Clear
8:15 AM 59.0 °F 53.6 °F 82% 30.18 in 10.0 mi ENE 3.5 mph - N/A   Clear
8:35 AM 62.6 °F 53.6 °F 72% 30.17 in 10.0 mi East 4.6 mph - N/A   Clear
8:55 AM 64.4 °F 51.8 °F 64% 30.17 in 10.0 mi ESE 8.1 mph - N/A   Clear
9:15 AM 66.2 °F 51.8 °F 60% 30.18 in 10.0 mi SE 8.1 mph - N/A   Clear
9:55 AM 68.0 °F 53.6 °F 60% 30.18 in 10.0 mi SE 11.5 mph - N/A   Clear
10:15 AM 69.8 °F 53.6 °F 56% 30.19 in 10.0 mi ESE 8.1 mph - N/A   Clear
10:35 AM 71.6 °F 53.6 °F 53% 30.18 in 10.0 mi SE 6.9 mph - N/A   Clear
10:55 AM 73.4 °F 53.6 °F 50% 30.18 in 10.0 mi SSE 4.6 mph - N/A   Clear
11:15 AM 75.2 °F 53.6 °F 47% 30.18 in 10.0 mi South 6.9 mph - N/A   Clear
11:35 AM 77.0 °F 53.6 °F 44% 30.17 in 10.0 mi SSE 6.9 mph - N/A   Clear
11:55 AM 77.0 °F 51.8 °F 41% 30.16 in 10.0 mi SW 5.8 mph - N/A   Clear
12:15 PM 78.8 °F 51.8 °F 39% 30.16 in 10.0 mi SSW 4.6 mph - N/A   Clear
12:35 PM 80.6 °F 51.8 °F 37% 30.16 in 10.0 mi SE 4.6 mph - N/A   Clear
12:55 PM 80.6 °F 50.0 °F 34% 30.15 in 10.0 mi SE 5.8 mph - N/A   Clear
1:15 PM 82.4 °F 50.0 °F 32% 30.14 in 10.0 mi SSE 3.5 mph - N/A   Clear
1:35 PM 82.4 °F 50.0 °F 32% 30.13 in 10.0 mi East 8.1 mph - N/A   Clear
1:55 PM 84.2 °F 50.0 °F 30% 30.12 in 10.0 mi South 6.9 mph - N/A   Clear
2:15 PM 84.2 °F 50.0 °F 30% 30.11 in 10.0 mi SE 6.9 mph - N/A   Clear
2:35 PM 86.0 °F 50.0 °F 29% 30.10 in 10.0 mi South 5.8 mph - N/A   Clear
2:55 PM 86.0 °F 46.4 °F 25% 30.09 in 10.0 mi SSW 6.9 mph - N/A   Clear
3:15 PM 86.0 °F 44.6 °F 23% 30.08 in 10.0 mi Calm Calm - N/A   Clear
3:35 PM 86.0 °F 44.6 °F 23% 30.08 in 10.0 mi WSW 6.9 mph - N/A   Clear
3:55 PM 87.8 °F 46.4 °F 24% 30.08 in 10.0 mi WSW 3.5 mph - N/A   Clear
4:15 PM 87.8 °F 50.0 °F 27% 30.07 in 10.0 mi Calm Calm - N/A   Clear
4:35 PM 87.8 °F 48.2 °F 25% 30.06 in 10.0 mi SW 4.6 mph - N/A   Clear
4:55 PM 87.8 °F 48.2 °F 25% 30.06 in 10.0 mi Calm Calm - N/A   Clear
5:15 PM 87.8 °F 46.4 °F 24% 30.06 in 10.0 mi SE 4.6 mph - N/A   Clear
5:35 PM 87.8 °F 48.2 °F 25% 30.05 in 10.0 mi Calm Calm - N/A   Clear
5:55 PM 87.8 °F 46.4 °F 24% 30.05 in 10.0 mi SSE 3.5 mph - N/A   Clear
6:15 PM 87.8 °F 48.2 °F 25% 30.05 in 10.0 mi Calm Calm - N/A   Clear
6:35 PM 86.0 °F 48.2 °F 27% 30.05 in 10.0 mi SE 4.6 mph - N/A   Clear
6:55 PM 84.2 °F 50.0 °F 30% 30.05 in 10.0 mi ESE 5.8 mph - N/A   Clear
7:15 PM 80.6 °F 51.8 °F 37% 30.04 in 10.0 mi ESE 5.8 mph - N/A   Clear
7:35 PM 78.8 °F 50.0 °F 36% 30.04 in 10.0 mi East 5.8 mph - N/A   Clear
7:55 PM 77.0 °F 50.0 °F 39% 30.04 in 10.0 mi East 5.8 mph - N/A   Clear
8:15 PM 73.4 °F 50.0 °F 44% 30.04 in 10.0 mi East 6.9 mph - N/A   Clear
8:35 PM 73.4 °F 50.0 °F 44% 30.04 in 10.0 mi East 6.9 mph - N/A   Clear
8:55 PM 71.6 °F 50.0 °F 46% 30.05 in 10.0 mi East 6.9 mph - N/A   Clear
9:15 PM 71.6 °F 50.0 °F 46% 30.06 in 10.0 mi East 8.1 mph - N/A   Clear
9:35 PM 71.6 °F 50.0 °F 46% 30.06 in 10.0 mi ESE 9.2 mph - N/A   Clear
9:55 PM 71.6 °F 51.8 °F 50% 30.06 in 10.0 mi ESE 9.2 mph - N/A   Clear
10:15 PM 69.8 °F 51.8 °F 53% 30.06 in 10.0 mi ESE 9.2 mph - N/A   Clear
10:35 PM 71.6 °F 51.8 °F 50% 30.06 in 10.0 mi ESE 9.2 mph - N/A   Clear
10:55 PM 69.8 °F 51.8 °F 53% 30.06 in 10.0 mi ESE 8.1 mph - N/A   Clear
11:15 PM 69.8 °F 51.8 °F 53% 30.07 in 10.0 mi SE 6.9 mph - N/A   Clear
11:35 PM 66.2 °F 51.8 °F 60% 30.07 in 10.0 mi SE 6.9 mph - N/A   Clear
11:55 PM 66.2 °F 51.8 °F 60% 30.07 in 10.0 mi SE 6.9 mph - N/A   Clear